Location: Unspecified
(0.0000°N, 0.0000°E)
Time: 18:09:11
(UTC+00:00)

STARLINK 1045 - Pass Details

Date: 23 January 2020
Orbit: 549 x 551 km, 53.0° (Epoch: 23 January)

Event Time Altitude Azimuth Distance (km) Brightness Sun altitude
Exits shadow 04:26:00 61° 156° (SSE) 621 3.9 -24.8°
Maximum altitude 04:26:21 65° 124° (SE) 602 3.9 -24.7°
Drops below altitude 10° 04:30:26 10° 42° (NE) 1,810 6.5 -23.7°
Sets 04:32:40 0° 39° (NE) 2,700 7.4 -23.2°
